Regional Weather Roundup
Issued by NWS

Home | Current Version | Previous Version | Graphics & Text | Print | Product List | Glossary On
Versions: 1 2 3 4 5 6 7 8 9 10 11 12 13 14 15 16 17 18 19 20 21 22 23 24 25 26 27 28 29 30 31 32 33 34 35 36 37 38 39 40 41 42 43 44 45 46 47 48 49 50
000
ASUS43 KBIS 250702
RWRND

NORTH DAKOTA REGIONAL WEATHER ROUNDUP
NATIONAL WEATHER SERVICE BISMARCK ND
200 AM CDT TUE APR 25 2017

NOTE: "FAIR" INDICATES FEW OR NO CLOUDS BELOW 12,000 FEET WITH NO
SIGNIFICANT WEATHER AND/OR OBSTRUCTIONS TO VISIBILITY.


NDZ001>003-009>011-017-250800-
NORTHWEST NORTH DAKOTA

CITY           SKY/WX    TMP DP  RH WIND       PRES   REMARKS
WILLISTON      CLOUDY    31  25  78 NE10      29.84S
MINOT          CLOUDY    32  27  81 N14       29.81S
MINOT AFB      CLOUDY    31  26  83 NE15      29.81S WCI  20
$$

NDZ018>021-031>035-040>046-250800-
SOUTHWEST NORTH DAKOTA

CITY           SKY/WX    TMP DP  RH WIND       PRES   REMARKS
BISMARCK       CLOUDY    34  29  82 N16       29.76S
DICKINSON      CLOUDY    28  26  92 NE14      29.73S WCI  17
GARRISON         N/A     30  26  85 NE12      29.78R
HETTINGER ARPT CLOUDY    30  28  92 NE12      29.73R FOG
$$

NDZ004>008-012>016-024-026-027-054-250800-
NORTHEAST NORTH DAKOTA

CITY           SKY/WX    TMP DP  RH WIND       PRES   REMARKS
GRAND FORKS    CLOUDY    33  31  92 N18       29.71R
GRND FRKS AFB  CLOUDY    31  29  94 N16       29.73R WCI  20
DEVILS LAKE    CLOUDY    29  27  92 N18       29.77R WCI  16
$$

NDZ022-023-025-028>030-036>039-047>053-250800-
SOUTHEAST NORTH DAKOTA

CITY           SKY/WX    TMP DP  RH WIND       PRES   REMARKS
FARGO          CLOUDY    35  33  92 N21G29    29.64S
JAMESTOWN      CLOUDY    32  30  92 N17       29.70R
$$





USA.gov is the U.S. government's official web portal to all federal, state and local government web resources and services.